GFSSW_925_temp_159.txt.gz
Temp
12 12 12 12 12 12 12 12 12 12 13 13 13 13 13 14 14 14 15 17 17 18 19 20 21 21 21 18 18 17 17 18 19 19 20 19 21 19 19 20 19 18 19 18 18
12 12 12 12 12 12 12 12 12 12 12 12 12 13 13 13 13 14 15 16 17 18 18 18 17 18 17 17 17 17 17 19 19 18 20 19 20 19 21 20 20 20 18 18 17
11 12 12 12 12 12 12 12 12 12 12 12 12 12 13 13 14 14 16 17 17 17 17 17 18 18 18 18 17 16 18 18 19 19 19 19 20 19 20 21 21 21 20 17 17
11 11 12 12 11 11 12 12 12 12 12 12 12 12 13 13 13 15 15 16 16 16 16 17 17 17 16 18 17 18 18 18 19 18 19 19 19 20 20 21 19 19 18 18 17
10 11 11 12 12 12 12 12 12 12 12 12 12 12 12 12 13 15 15 16 15 15 16 15 16 15 16 16 16 17 17 17 17 18 18 18 18 18 18 19 18 18 18 17 17
10 10 10 11 12 12 12 12 12 12 12 12 11 12 12 11 14 14 14 15 15 15 15 15 15 15 15 16 16 16 16 16 16 17 17 18 17 18 18 17 18 17 16 16 16
10 10 10 10 11 11 12 12 12 12 12 12 11 11 11 11 14 13 14 15 14 15 15 15 16 16 14 15 15 14 16 15 15 17 17 16 16 16 17 17 17 16 15 15 16
10 10 10 10 11 11 11 12 12 12 12 11 11 11 10 13 13 13 13 14 14 15 15 15 16 14 15 13 14 14 13 14 15 15 16 17 16 17 15 16 16 15 14 14 15
9 10 10 10 10 11 11 11 12 11 11 11 10 11 10 12 12 14 13 14 14 14 15 15 16 14 14 13 14 14 13 13 14 14 16 15 15 16 14 14 15 14 14 14 15
9 9 10 10 10 10 11 11 12 10 10 10 10 10 10 10 12 13 14 14 13 12 14 14 14 13 12 13 12 13 13 13 14 15 14 14 13 14 14 14 14 13 13 13 14
8 9 10 10 10 10 10 10 9 10 9 11 10 11 10 12 12 12 13 12 12 13 14 13 13 14 14 13 13 13 13 13 13 14 14 13 13 13 13 13 13 13 14 15 15
7 8 9 9 9 10 10 10 11 12 10 10 10 11 11 12 11 11 13 12 12 13 12 13 14 14 14 13 13 13 13 12 13 14 14 13 13 13 13 14 15 14 15 15 14
7 7 8 8 9 9 9 10 12 12 11 9 10 11 11 11 11 11 12 11 12 12 12 13 13 13 13 12 12 12 13 13 14 13 13 13 14 14 14 13 13 13 13 13 13
7 7 7 8 7 8 8 9 10 11 10 10 9 10 10 11 11 12 13 13 12 12 12 12 13 12 12 13 13 12 12 13 13 13 14 13 12 15 15 15 15 15 14 13 12
6 7 7 7 7 8 9 9 10 10 10 10 9 11 10 12 11 10 12 11 11 11 12 12 11 12 12 13 13 14 12 12 12 12 12 14 13 12 12 14 14 15 15 13 12
6 7 7 6 7 6 9 9 10 9 10 9 9 9 10 10 10 9 11 11 11 11 11 11 11 12 12 12 13 11 12 11 12 13 12 13 13 12 12 14 14 14 14 12 11
6 7 7 6 6 7 7 8 9 9 8 9 9 10 10 10 10 10 11 11 11 11 11 10 10 11 11 11 11 13 12 11 12 12 11 10 11 14 13 13 15 15 13 11 9
6 6 6 6 6 6 7 8 9 9 8 9 10 10 10 10 10 10 11 11 12 11 11 11 10 11 10 12 12 12 13 10 10 10 11 10 11 12 13 14 13 13 10 9 8
6 6 6 6 6 6 7 8 9 10 8 9 10 9 10 10 11 11 11 11 12 11 11 11 11 11 10 11 13 11 12 12 10 4 8 10 10 12 11 12 11 10 10 8 7
5 5 5 5 6 5 4 7 7 8 8 10 10 10 9 10 10 11 10 12 11 11 11 10 10 10 11 12 12 11 12 11 10 11 11 11 11 13 12 11 10 9 9 7 6
5 3 5 5 5 4 5 5 5 7 9 9 9 9 11 9 10 10 10 11 12 11 11 10 11 9 10 10 12 11 11 11 12 10 9 8 11 10 13 11 10 9 8 6 5
3 3 4 5 4 4 6 5 5 6 7 8 8 8 8 9 9 10 9 11 12 12 10 10 10 8 10 10 10 13 12 12 12 9 9 10 13 13 12 10 10 8 6 4 4
3 2 4 5 4 4 4 5 6 6 8 7 8 9 8 8 9 9 9 10 10 11 10 11 9 9 9 10 9 10 10 12 11 9 9 11 12 10 10 9 8 7 5 4 3
2 2 1 4 2 5 4 5 6 6 8 8 7 8 9 9 9 9 8 9 9 11 11 12 9 10 11 12 9 9 10 10 11 11 11 11 12 12 8 8 6 5 4 3 2
1 3 1 2 4 5 6 7 6 7 7 7 7 8 9 8 8 8 10 8 8 10 10 10 9 10 10 10 9 10 11 10 10 12 11 12 12 13 11 8 7 4 3 2 1
3 3 2 3 4 5 6 6 7 6 7 8 7 7 7 8 10 9 9 8 9 8 9 9 9 8 9 10 8 10 9 9 10 11 11 12 12 11 6 4 4 4 3 2 0
2 1 2 5 4 5 6 6 8 6 7 8 7 7 7 9 9 9 10 9 8 8 9 8 9 8 9 9 8 8 9 10 10 11 11 10 12 8 4 5 5 3 2 1 -1

GFSSW_925_temp_162.txt.gz
Temp
12 12 12 13 12 12 12 12 12 13 13 13 13 13 13 14 14 15 17 17 17 18 19 20 21 22 22 23 22 22 25 25 24 24 24 24 25 24 23 25 24 23 24 22 19
12 12 12 12 12 12 12 12 12 12 12 13 13 13 13 13 14 15 16 17 17 17 18 20 22 22 23 23 22 24 25 24 24 24 24 23 24 24 25 25 24 24 22 20 19
11 11 12 12 12 12 12 12 12 12 12 12 12 13 13 13 15 16 16 16 16 17 17 18 19 21 22 22 22 22 24 23 22 23 23 23 24 23 25 25 25 25 24 22 21
11 11 12 12 12 12 12 12 12 12 12 12 12 12 13 13 16 14 15 15 16 15 16 18 20 21 22 22 21 22 21 22 22 21 22 22 23 23 23 25 23 24 22 22 23
11 11 11 11 12 11 11 12 12 12 12 12 12 12 12 14 15 15 15 16 16 15 16 18 20 20 21 21 20 21 21 20 20 20 21 20 22 23 23 24 22 22 21 22 22
10 11 11 11 11 11 11 11 11 12 12 12 12 12 12 13 14 14 14 15 14 15 16 17 19 20 20 20 21 20 20 19 19 20 20 20 21 20 22 22 22 21 22 22 21
10 10 11 11 11 11 11 12 11 12 12 11 11 11 12 14 13 13 14 15 15 15 16 16 17 19 19 18 18 18 19 19 19 20 21 20 21 20 23 21 22 21 21 21 21
10 10 10 11 11 11 11 11 12 12 11 11 11 11 13 12 12 13 13 14 14 14 16 16 16 17 18 17 17 18 18 19 20 19 20 20 21 20 21 21 21 21 22 21 22
9 10 10 11 11 11 11 11 11 12 11 10 10 12 12 11 12 13 13 14 14 15 15 16 17 18 16 18 17 17 18 17 18 18 19 19 20 20 19 20 20 22 22 22 22
9 9 10 10 11 11 10 12 11 10 10 10 10 11 11 12 12 13 14 13 15 15 15 16 16 16 17 17 17 17 17 16 18 18 17 18 19 19 19 19 20 21 21 22 22
8 9 10 10 10 10 10 10 10 10 9 11 10 12 12 11 12 12 13 13 14 15 15 15 15 15 16 17 17 18 17 18 16 17 17 18 18 19 20 19 19 20 21 22 22
7 8 9 9 10 10 10 11 13 13 10 11 11 10 11 12 12 12 13 14 14 14 15 14 15 17 17 16 16 16 16 16 16 16 16 18 18 18 19 19 19 21 22 21 21
7 7 8 9 9 8 9 10 12 12 12 9 11 12 12 12 12 12 14 14 14 15 14 15 16 17 16 15 15 16 16 17 16 16 17 17 18 19 19 18 18 18 19 19 18
7 7 7 8 7 7 8 9 10 12 11 10 9 11 11 13 13 12 14 15 13 14 15 15 16 15 15 15 16 15 16 16 15 16 16 17 17 19 19 20 19 19 20 20 17
7 7 7 7 8 7 8 9 10 11 10 12 10 13 12 13 13 11 13 13 13 13 14 14 13 14 14 15 15 16 15 15 15 15 15 16 13 18 16 17 19 20 19 18 17
7 7 7 6 7 8 8 8 9 9 10 10 9 9 11 13 12 11 12 14 14 13 13 15 12 14 16 15 15 14 14 14 14 15 13 16 15 19 19 19 21 20 18 16 16
7 7 7 7 7 7 7 8 8 10 9 9 9 10 11 11 11 12 12 12 13 12 13 13 13 13 13 14 13 14 15 13 13 13 14 15 16 18 18 19 19 20 16 16 14
6 6 7 7 6 6 5 7 9 9 9 11 11 11 11 11 11 11 12 12 14 14 15 13 12 13 13 15 14 14 15 15 14 14 16 13 14 18 18 20 18 16 17 14 13
6 5 6 6 6 6 4 6 9 9 9 10 11 10 10 11 11 11 12 13 13 14 15 13 14 13 14 14 16 14 13 16 13 9 13 16 15 16 16 17 16 15 15 14 12
5 5 6 6 6 5 4 6 8 8 12 12 11 11 10 10 11 11 11 14 14 14 13 13 13 12 13 13 14 14 16 11 12 13 13 16 16 18 16 17 18 15 15 13 11
5 5 5 6 6 4 5 6 6 6 10 12 12 10 12 10 11 10 11 13 14 14 13 13 13 10 11 12 13 12 13 13 15 13 14 15 17 19 19 17 17 16 15 13 11
4 4 4 5 4 4 4 4 6 6 7 10 12 12 11 11 10 11 12 13 14 14 12 13 13 12 12 12 12 15 14 14 14 13 14 15 16 16 17 18 18 16 14 12 10
4 4 3 5 4 4 5 5 6 6 6 7 11 12 13 11 11 11 12 13 13 13 13 13 10 11 10 11 10 12 14 14 15 14 13 13 16 18 17 17 16 15 12 10 8
4 4 3 4 4 5 5 6 5 6 5 5 8 10 11 12 13 11 12 11 11 13 12 13 12 12 14 15 14 11 12 13 13 11 13 14 16 18 15 14 13 13 11 9 7
3 3 3 4 4 5 5 6 6 7 7 5 7 9 12 11 11 11 12 10 10 12 12 12 10 12 13 14 13 14 13 12 12 13 13 15 15 16 17 16 14 14 11 8 7
3 3 3 3 4 5 5 6 6 7 6 6 6 10 12 11 12 11 12 11 12 10 11 11 11 11 10 12 12 12 13 13 13 13 13 14 15 17 17 17 15 12 9 8 7
2 1 4 5 4 4 5 6 6 8 7 5 7 10 10 11 12 13 12 12 12 11 11 10 10 9 10 12 11 9 11 12 13 14 14 13 15 16 16 13 12 11 9 8 7

GFSSW_925_temp_165.txt.gz
Temp
12 12 12 12 12 12 12 12 12 13 13 13 13 14 14 14 15 16 19 18 18 18 19 21 23 24 25 26 26 26 28 28 27 28 27 27 27 26 26 27 27 26 26 24 22
12 12 12 12 12 12 12 12 12 12 12 13 13 13 14 14 15 17 17 17 17 18 20 22 24 24 26 25 26 27 27 28 28 28 27 26 27 27 27 27 26 26 24 23 22
11 12 12 12 12 12 12 12 12 12 12 12 13 13 13 14 17 19 16 16 17 17 18 20 21 24 24 25 25 25 26 26 26 26 27 26 26 26 27 27 27 27 26 25 24
11 11 12 12 12 12 12 12 12 12 12 12 12 12 13 14 17 16 15 16 16 16 17 20 22 23 23 24 25 24 25 26 25 24 25 25 26 26 26 27 26 26 25 25 26
10 11 11 12 12 12 12 12 12 12 12 11 11 12 13 15 17 15 15 15 16 16 17 20 21 23 22 24 24 24 25 24 24 23 24 23 24 25 25 27 25 25 24 25 25
10 10 11 11 11 12 12 11 12 12 12 11 11 12 13 15 14 14 14 15 16 17 18 19 21 23 22 23 23 24 24 23 22 23 23 22 24 23 25 26 26 25 25 25 24
10 11 10 11 11 11 12 11 11 12 12 11 11 12 14 16 14 14 14 15 15 17 18 19 19 20 22 21 21 21 21 22 22 22 23 22 22 23 24 24 24 25 25 25 24
9 10 10 10 11 11 11 12 11 11 11 11 11 12 14 14 14 13 14 15 15 15 17 17 18 20 20 20 20 20 21 21 23 22 22 21 23 25 26 25 24 25 25 24 24
9 9 10 10 11 11 11 11 11 11 11 11 11 13 14 12 13 14 14 16 16 16 17 16 18 19 18 19 19 20 21 21 22 22 22 21 22 25 23 23 23 24 24 25 24
9 9 10 10 10 10 11 10 11 10 10 10 11 11 13 14 14 14 14 14 16 16 16 17 17 17 18 19 19 20 19 21 21 21 20 21 21 23 21 22 22 23 24 24 24
9 8 9 8 9 10 10 10 10 10 9 11 11 12 14 13 13 14 14 14 16 16 16 16 16 16 18 18 20 19 21 21 21 20 19 20 21 22 22 22 22 22 22 23 24
8 9 9 10 9 9 10 12 14 12 10 11 13 13 13 13 13 14 14 15 15 14 16 15 15 18 19 19 18 18 18 19 20 19 18 20 20 21 21 21 21 22 22 23 24
8 8 8 10 8 8 9 11 13 13 13 10 12 13 13 13 14 13 14 15 15 16 16 16 17 18 18 17 17 17 17 19 19 18 18 18 18 20 21 22 22 22 22 22 22
7 8 8 9 8 8 7 10 11 12 11 10 10 12 13 14 14 14 14 16 15 15 17 17 19 17 17 17 17 16 18 18 18 16 18 18 18 21 21 21 19 20 20 21 20
7 7 8 8 10 8 8 9 10 11 11 13 10 14 14 14 14 13 14 15 15 15 16 16 16 16 16 17 18 17 18 17 17 16 16 18 16 20 21 20 21 22 21 22 20
7 7 7 7 8 8 8 8 9 9 11 10 11 11 12 14 14 13 14 15 16 15 16 16 14 16 17 17 17 16 16 16 16 16 15 17 18 20 21 20 21 21 21 20 18
7 7 7 7 8 8 7 7 9 10 10 10 10 12 13 13 13 13 12 12 13 12 13 15 14 15 15 15 15 15 15 14 14 14 15 18 18 19 22 22 22 21 20 18 18
7 7 7 7 7 7 6 6 9 10 9 11 12 11 12 14 13 13 13 12 14 15 16 14 13 14 15 16 15 14 16 15 14 15 17 16 16 19 21 22 22 21 20 18 17
7 6 6 6 7 6 4 7 9 9 10 11 11 10 11 13 13 13 14 14 15 16 16 15 15 16 15 16 17 14 14 17 15 12 14 18 18 19 18 19 21 18 19 17 16
6 6 6 6 6 4 5 7 7 7 10 13 11 12 11 10 12 11 13 15 15 16 17 16 15 14 14 15 16 15 17 13 12 13 14 17 18 19 19 19 19 18 17 17 16
6 4 5 5 4 3 6 6 6 6 5 10 13 10 12 11 12 11 13 15 16 16 16 15 15 11 13 13 14 14 13 15 15 14 15 15 18 21 21 21 20 20 18 17 15
5 5 5 4 4 4 5 5 5 7 5 6 9 13 13 12 12 12 13 15 16 16 14 15 15 13 12 14 15 15 14 15 13 13 15 15 17 20 19 20 21 20 20 19 16
4 4 4 6 5 5 5 6 6 7 6 6 7 12 15 13 11 13 14 16 16 16 14 14 10 11 11 12 12 13 14 15 15 15 14 13 16 20 21 19 20 19 19 18 15
6 5 4 4 6 6 6 6 6 7 7 6 6 7 12 13 14 13 14 15 14 15 13 14 13 13 14 16 14 12 13 14 14 12 13 14 16 18 19 18 18 19 18 17 13
5 4 3 4 4 5 6 7 7 7 8 7 7 6 9 11 12 13 14 13 13 13 13 13 10 13 14 15 16 14 14 13 13 14 14 15 16 18 19 19 19 18 18 15 12
5 4 3 4 5 5 5 6 7 7 7 7 7 9 7 8 13 12 13 13 12 13 13 12 11 12 11 14 14 13 14 14 14 14 14 15 15 18 19 19 19 19 17 14 13
3 3 5 7 5 5 6 6 7 8 8 9 8 8 8 7 12 16 15 15 14 13 12 11 10 10 11 12 13 11 13 14 14 15 15 14 15 17 17 17 17 17 17 14 12

GFSSW_925_temp_168.txt.gz
Temp
11 12 12 12 12 12 12 12 13 13 13 13 14 14 14 14 15 16 18 17 18 19 20 21 23 25 26 26 26 26 24 26 28 28 25 26 26 27 26 26 25 25 23 23 22
11 11 12 12 12 12 12 12 12 12 13 13 13 14 14 15 15 17 17 17 18 18 19 21 23 23 24 25 25 25 24 26 26 26 25 26 27 26 26 25 24 23 23 23 22
11 11 12 12 12 12 12 12 12 12 12 13 13 13 14 15 16 18 16 17 18 18 18 19 21 23 23 25 25 26 24 26 26 25 26 26 26 27 26 25 24 23 23 23 23
10 11 11 12 12 12 12 12 12 12 12 12 12 13 13 14 16 15 16 16 17 18 17 20 21 22 23 23 25 23 25 26 25 23 25 25 26 25 26 24 25 24 24 24 23
10 10 11 11 12 12 12 12 12 12 12 12 12 12 13 14 16 15 16 15 16 17 17 20 21 21 22 24 24 22 24 24 24 22 24 23 24 24 25 25 25 24 24 24 25
10 10 10 11 11 12 12 12 12 12 12 12 12 12 12 14 15 15 16 16 17 17 17 18 21 21 22 21 23 23 23 23 23 23 23 22 22 23 23 24 23 24 23 23 24
11 10 10 11 11 12 12 11 12 12 11 11 12 12 13 15 15 14 15 16 16 17 18 18 20 19 21 21 22 22 21 23 22 21 22 22 20 21 22 24 24 23 22 23 23
10 10 10 10 10 11 11 11 11 11 11 11 11 12 14 15 14 14 14 15 16 16 17 18 18 18 20 20 20 20 20 18 21 21 21 20 20 22 22 22 22 22 21 22 22
10 9 10 10 10 10 11 11 11 11 11 11 11 13 13 13 14 14 15 16 16 16 17 17 18 18 19 18 17 18 18 18 20 21 21 19 19 21 23 23 22 21 21 22 22
9 9 9 9 10 10 10 10 10 10 10 10 11 11 13 13 14 14 15 15 16 16 16 16 16 16 16 16 15 17 17 18 19 20 20 18 18 19 22 21 20 20 20 21 21
9 8 9 9 9 10 10 9 10 10 9 11 11 12 14 13 13 14 15 14 16 16 15 15 14 14 16 17 18 19 18 18 19 20 19 17 18 19 20 18 18 18 19 19 20
8 8 8 9 9 9 9 11 12 12 11 10 12 13 14 14 13 14 14 14 14 14 15 14 14 16 18 18 17 17 17 17 20 19 18 17 17 18 19 19 19 19 19 19 19
8 8 8 8 8 8 8 10 13 13 12 10 11 13 13 13 14 13 14 14 14 14 15 15 17 17 18 17 17 16 16 17 17 18 18 16 15 17 18 20 19 20 19 19 19
8 8 8 8 8 7 7 9 11 12 10 10 10 12 13 13 13 14 14 15 15 14 15 15 18 17 16 17 17 16 17 17 17 16 14 16 12 17 20 19 19 19 18 18 18
7 7 8 8 8 7 7 8 9 10 11 11 11 14 14 14 13 13 14 14 14 15 15 15 16 16 16 16 17 16 17 17 16 15 15 15 15 16 17 18 17 17 17 17 16
7 8 8 7 8 9 8 7 9 9 10 10 11 11 12 13 14 13 13 14 15 15 15 15 14 15 16 17 17 16 15 16 16 14 13 14 15 15 18 18 19 19 18 17 16
7 7 7 7 7 8 7 7 8 10 10 10 10 11 12 12 13 13 12 12 12 12 13 14 14 15 15 15 16 15 14 12 12 12 11 16 14 16 19 19 20 18 18 16 15
7 7 7 7 8 8 7 6 8 9 10 11 12 12 12 13 13 12 12 12 13 14 13 13 12 14 14 15 14 14 14 12 12 12 14 14 13 16 18 19 20 20 16 15 14
7 7 6 7 7 7 5 7 7 8 8 11 12 11 11 13 13 12 12 12 13 14 14 13 14 15 14 15 15 14 13 15 13 10 11 13 15 16 18 18 18 17 15 14 14
6 6 7 6 6 5 5 7 7 6 6 8 11 11 11 11 13 12 12 14 13 14 15 16 14 13 14 14 14 14 15 13 12 10 11 13 14 15 16 16 17 15 15 14 13
6 5 6 6 6 3 6 6 6 6 5 6 9 10 12 12 13 11 13 14 15 15 15 15 14 11 11 12 13 14 13 14 14 12 11 11 13 18 18 17 16 15 15 14 12
6 4 4 6 4 4 5 5 6 7 5 5 6 9 11 13 12 12 12 14 15 15 14 14 13 10 11 14 14 15 14 14 13 12 12 14 14 18 17 19 19 16 16 14 13
3 3 3 6 5 5 4 5 7 7 6 6 6 6 6 12 11 13 13 14 15 15 14 14 11 10 10 10 11 12 13 14 14 12 11 12 14 17 17 17 18 17 18 14 12
5 4 3 4 4 5 5 5 4 8 7 6 6 7 6 9 12 12 13 13 14 15 13 14 11 12 13 14 10 10 12 13 13 12 12 12 13 15 15 15 17 16 16 14 11
5 3 2 4 4 5 6 6 5 6 8 7 7 6 7 7 9 12 13 13 13 13 13 12 10 12 12 13 14 13 12 12 12 13 12 14 14 15 16 15 15 15 14 14 11
4 3 3 3 5 5 5 4 6 5 6 6 6 9 7 5 7 6 11 13 12 12 13 12 10 10 11 12 12 12 11 12 12 13 13 13 13 16 16 16 15 15 15 13 12
3 4 4 5 3 4 5 4 5 7 7 8 8 8 7 8 8 8 7 8 12 12 11 11 11 10 10 11 10 10 12 12 12 12 13 12 13 15 14 15 15 14 14 15 11

GFSSW_925_temp_171.txt.gz
Temp
11 12 12 12 12 12 12 12 13 13 13 13 14 14 14 15 16 17 17 18 18 19 20 21 22 23 24 23 23 22 20 22 25 23 22 24 24 25 24 22 21 21 21 21 22
10 11 11 11 12 12 12 12 12 13 13 13 14 14 14 15 15 16 17 17 18 19 20 19 19 20 20 23 22 21 20 23 24 23 22 23 24 23 23 22 21 20 20 22 22
10 11 11 11 12 12 12 12 12 12 12 13 13 14 14 14 15 16 17 18 18 18 18 18 20 20 21 22 23 22 22 24 22 23 24 24 24 25 21 22 20 20 19 20 21
10 11 11 11 11 12 12 12 12 12 12 12 12 13 14 14 16 16 16 17 18 18 18 19 20 20 21 21 23 22 22 22 23 22 23 23 23 24 24 23 22 20 20 21 21
10 10 11 11 11 11 12 12 12 12 12 12 12 13 13 13 14 16 16 16 17 17 17 18 19 20 20 21 22 22 22 22 20 21 21 22 23 23 22 21 20 21 21 20 20
10 10 11 11 11 11 12 12 12 12 12 12 12 12 12 12 15 15 16 16 16 16 17 17 19 19 20 20 20 21 20 22 21 21 22 21 21 22 22 21 20 21 21 21 22
10 10 11 11 11 11 11 12 11 11 12 12 12 12 12 12 15 15 16 16 16 16 17 18 18 18 19 20 18 20 20 21 20 21 21 21 19 20 20 22 20 20 19 20 21
9 10 10 11 10 11 11 12 12 11 11 11 11 11 11 14 14 14 15 15 16 16 17 18 18 18 18 19 18 19 18 17 19 19 20 20 17 19 19 19 20 19 18 19 19
9 9 10 10 10 10 11 11 11 10 11 11 11 11 11 13 14 15 14 15 16 16 17 18 18 17 18 16 15 16 15 16 18 18 19 18 17 19 19 18 18 17 18 18 19
9 9 9 10 9 10 10 10 10 10 10 10 11 10 12 12 13 14 15 15 15 15 15 16 15 14 14 13 14 15 15 16 16 19 17 17 16 17 17 20 18 18 17 18 18
9 9 9 9 9 10 10 9 9 10 9 11 11 12 12 13 14 13 14 14 15 14 13 14 13 12 14 15 15 16 16 16 16 18 18 17 15 16 16 16 17 16 16 17 17
8 9 9 8 9 9 9 10 12 12 11 10 12 12 13 13 12 13 14 13 13 13 13 13 12 14 15 15 15 15 16 15 16 17 17 16 14 15 15 16 16 16 16 16 17
8 8 8 8 8 8 8 10 11 11 11 10 10 12 12 13 12 12 13 13 13 13 13 12 15 15 15 15 15 15 14 15 16 17 16 15 14 14 15 16 16 16 16 16 16
8 8 8 7 8 7 8 9 8 9 10 10 10 11 12 13 12 14 14 14 14 13 13 13 15 15 14 15 15 15 15 16 16 14 13 14 11 14 16 15 16 18 16 15 15
8 8 7 7 7 7 7 9 7 9 11 10 10 11 12 12 12 12 14 14 13 13 14 13 14 14 14 15 15 15 16 15 16 14 14 14 12 12 15 16 16 16 16 15 14
8 8 7 7 8 8 9 7 7 9 10 10 11 10 10 11 12 12 12 12 14 14 14 13 14 15 15 16 15 15 15 15 14 13 13 13 12 11 15 17 16 17 15 15 13
8 7 7 7 6 8 8 5 6 10 9 9 10 11 11 11 10 11 11 11 11 11 11 13 13 14 15 15 15 15 13 11 11 12 11 13 13 15 16 17 17 17 16 13 13
7 7 7 7 7 7 7 6 7 8 8 10 11 11 11 11 11 11 11 11 11 12 11 11 11 13 13 14 14 14 14 12 11 11 12 12 12 13 15 16 16 17 14 13 11
7 6 6 7 7 7 5 7 7 7 6 10 11 10 10 12 12 11 10 11 12 12 13 12 12 13 13 14 15 13 13 14 12 7 10 11 13 15 15 17 16 14 13 12 11
6 6 6 7 7 6 5 7 6 6 5 7 9 10 10 11 11 12 11 12 12 13 13 13 12 12 13 14 14 14 14 13 11 10 9 11 12 14 15 15 15 13 13 12 11
7 3 5 7 7 4 5 5 5 6 6 6 7 9 11 10 12 11 11 12 13 12 13 13 13 10 12 12 13 13 13 13 13 10 10 9 11 13 17 15 15 14 13 12 11
3 3 4 7 3 2 4 4 5 6 6 5 6 6 7 11 11 11 11 12 13 13 12 13 12 9 11 12 12 15 14 14 13 11 11 11 12 15 15 16 16 15 13 12 12
2 3 4 6 2 -2 2 3 6 6 5 5 6 6 5 7 10 12 11 13 12 13 12 13 10 9 11 10 9 12 12 14 13 11 11 11 14 16 17 15 14 15 13 11 10
2 3 3 4 2 0 -2 1 3 6 6 6 5 6 5 7 7 8 12 12 12 13 13 14 10 12 12 13 10 9 10 12 13 11 12 12 13 15 14 13 13 15 14 10 10
1 2 0 4 2 1 3 4 4 3 6 5 5 5 7 6 6 7 7 11 12 12 12 12 11 11 12 12 12 11 11 11 11 12 11 14 13 14 14 13 13 13 13 12 10
0 -0 -1 -4 1 4 2 -0 4 2 4 5 5 7 6 6 8 7 6 6 9 11 12 11 9 9 10 10 10 11 11 12 12 12 12 13 13 15 14 13 13 13 13 12 10
3 3 1 1 0 0 1 1 4 5 5 6 6 6 6 6 7 8 7 6 6 6 11 11 10 9 11 10 10 9 10 11 11 12 12 11 13 14 14 13 13 12 12 13 12

GFSSW_925_temp_174.txt.gz
Temp
11 11 12 12 12 12 12 12 12 13 13 14 14 15 15 15 16 17 17 18 18 19 20 21 22 22 23 21 22 21 20 20 23 21 23 23 23 24 21 21 20 19 20 20 21
10 11 11 12 12 12 12 12 12 12 13 13 13 14 15 15 16 16 18 18 18 19 19 19 18 19 19 21 21 19 18 23 22 21 21 22 23 22 21 20 19 18 19 21 21
9 11 11 11 11 12 12 12 12 12 12 13 13 13 14 15 15 17 18 18 18 18 18 19 19 19 20 20 21 21 20 21 22 22 22 22 22 23 20 21 19 18 18 19 20
9 10 11 11 11 11 11 12 12 12 12 12 13 13 14 14 16 16 16 17 18 18 18 19 19 20 20 21 20 22 21 21 21 20 22 22 22 22 22 22 20 19 19 19 18
9 10 11 10 10 11 11 12 12 12 12 12 12 12 13 13 14 16 16 16 17 17 17 18 19 19 19 20 21 21 21 20 20 20 20 21 20 22 21 21 18 18 18 18 18
9 9 10 10 10 11 11 11 12 12 12 12 12 12 12 12 15 16 16 16 16 16 17 17 18 19 19 19 20 20 20 21 20 20 20 21 20 21 21 19 18 18 18 18 18
9 9 10 10 10 11 11 11 11 12 11 12 12 12 12 12 15 15 16 16 16 16 16 17 18 18 18 19 19 19 20 19 20 20 20 20 20 20 20 20 19 18 18 18 19
9 9 9 10 11 10 10 11 11 11 11 11 11 11 11 14 14 14 15 15 16 16 17 18 18 18 18 18 17 18 16 17 19 19 20 19 18 19 19 18 18 18 16 17 18
9 9 9 9 10 10 10 11 11 11 11 11 11 11 11 13 13 14 14 15 15 16 17 17 18 16 17 15 16 14 15 16 18 17 18 18 17 17 19 17 17 16 16 16 17
9 9 9 9 10 10 10 11 10 10 10 10 10 11 11 12 13 14 14 15 15 15 15 16 13 13 13 14 14 15 15 15 16 19 17 16 15 17 17 18 17 16 15 15 16
8 9 9 9 10 10 10 10 10 10 10 10 10 11 12 13 13 13 14 14 14 14 13 14 12 12 14 16 15 15 15 16 16 17 17 15 15 16 15 16 15 15 15 15 15
8 9 9 9 9 10 9 10 9 10 11 10 11 12 12 13 12 12 14 13 13 13 13 13 12 13 14 15 16 15 15 15 15 17 16 16 15 14 14 15 15 15 14 15 15
8 8 9 8 9 9 9 8 9 11 11 10 11 12 12 13 12 11 13 13 13 12 13 12 13 14 14 14 14 14 13 14 16 15 15 14 13 14 15 14 14 16 16 17 15
8 8 8 8 8 8 7 7 9 10 10 10 10 11 11 12 12 13 13 14 13 12 12 13 14 14 13 13 14 13 14 15 15 15 13 14 10 12 14 14 14 14 16 15 14
8 8 7 8 7 7 7 7 9 10 10 11 10 10 11 12 11 12 13 13 12 12 13 13 13 13 13 14 14 14 14 14 15 14 13 13 11 11 13 14 15 15 14 15 14
8 7 7 7 8 7 7 8 8 8 10 10 10 10 10 11 12 11 12 12 13 13 13 13 13 13 13 14 14 14 14 14 12 13 12 12 12 10 14 16 16 15 14 13 12
8 7 7 7 7 7 8 7 7 7 8 9 10 11 11 10 10 11 10 11 11 11 12 13 13 14 15 14 14 14 13 11 11 11 10 12 12 15 14 15 16 16 15 14 11
7 7 7 7 8 7 8 6 7 7 8 9 11 11 11 11 11 10 10 11 10 12 11 11 12 12 14 14 13 14 14 12 10 11 10 11 11 12 13 15 15 15 15 11 10
6 6 7 7 7 8 5 7 7 7 6 7 11 10 10 11 11 11 11 11 12 11 12 10 11 13 12 14 15 13 13 13 11 6 8 11 11 13 13 14 15 14 12 10 10
6 6 5 6 7 6 5 6 6 6 5 6 9 10 10 10 11 11 10 12 11 12 12 12 12 12 13 14 13 13 14 12 8 8 8 11 11 13 15 14 14 13 12 11 10
7 4 5 6 5 3 5 4 5 6 6 6 7 8 8 10 10 11 10 11 12 11 12 12 12 11 11 11 13 13 13 13 14 9 9 9 11 11 15 14 13 13 13 11 10
3 5 4 5 2 1 -0 1 5 6 6 5 6 6 7 7 9 10 11 11 12 12 12 11 11 9 11 11 11 15 14 14 13 10 10 11 14 14 13 14 16 15 12 11 11
3 3 4 7 -0 2 2 2 5 6 5 5 6 6 5 7 7 8 10 12 11 12 12 12 10 9 10 10 9 11 13 14 13 11 13 11 14 15 14 14 14 15 14 11 9
1 4 2 3 1 0 -0 -0 2 6 6 6 5 6 6 7 7 7 8 9 10 12 12 12 11 13 12 13 11 10 12 13 13 11 12 12 14 14 14 13 13 13 13 12 9
-1 1 -1 3 3 -2 1 2 2 2 6 5 5 5 6 5 7 7 6 7 8 8 12 10 9 11 13 12 12 12 12 11 11 12 12 14 12 14 14 13 12 12 12 12 10
1 -0 -3 -6 0 3 -1 -0 3 1 4 4 4 6 6 5 7 6 6 6 6 6 7 10 10 9 10 10 10 10 11 11 11 12 12 12 12 15 14 12 12 11 11 11 10
2 2 0 -1 -1 -1 0 1 4 5 4 5 5 5 5 6 6 7 8 7 7 6 6 6 9 10 11 9 8 9 10 11 11 12 12 11 13 14 14 12 12 11 12 13 12